Temp
7 7 8 9 10 10 10 10 10 11 11 11 11 12 13 14 14 14 15 15 16 16 17 18 18 19 20 20 19 20 20 20 20 19 20 21 23 24 23 25 25 24 24 25 25 25 24
9 9 10 11 11 11 11 11 11 11 12 12 12 13 13 13 14 14 14 15 16 16 17 17 18 19 20 22 19 19 20 19 19 19 20 21 21 21 22 23 23 24 23 23 24 24 24
10 11 11 12 12 12 12 12 12 12 13 13 13 13 14 14 14 14 15 15 16 17 17 18 18 19 19 18 19 18 19 19 20 20 20 20 19 20 22 23 23 23 22 22 24 25 25
11 11 11 12 12 12 13 13 13 13 13 13 14 14 14 14 14 15 15 16 16 17 17 18 19 19 19 19 19 19 18 19 18 18 19 18 19 19 20 22 22 23 23 22 26 25 23
11 12 12 12 12 12 13 13 13 14 14 14 14 14 14 15 15 15 15 16 17 17 18 18 18 18 19 19 19 18 18 19 18 19 18 19 19 20 21 20 21 23 22 23 25 26 25
12 12 12 12 12 13 13 13 13 14 14 14 15 15 15 15 15 16 16 17 17 18 18 18 19 19 19 19 18 18 18 18 19 19 20 19 20 20 20 21 20 21 22 22 21 24 24
11 11 12 12 12 13 13 14 14 14 14 15 15 15 15 16 16 16 17 17 17 17 18 17 19 19 19 18 19 19 18 19 19 20 21 21 20 20 21 21 21 21 21 21 22 24 23
11 11 12 12 13 13 14 15 15 15 15 15 15 15 16 16 16 16 16 17 17 17 18 17 18 18 18 18 20 19 19 20 21 20 22 21 19 21 21 21 21 21 20 21 22 23 21
11 11 12 12 13 13 14 15 15 16 15 15 15 16 16 16 16 16 16 17 17 17 19 18 18 19 18 18 20 19 19 20 21 21 22 21 22 21 21 21 21 21 21 20 19 20 21
11 11 12 12 13 13 14 15 15 16 16 16 15 16 16 16 16 16 16 17 17 18 20 19 19 19 19 18 19 18 18 18 21 21 20 21 21 21 20 20 21 19 20 19 19 18 18
11 12 12 12 13 13 13 14 15 16 16 16 15 16 16 16 15 16 17 17 17 17 21 20 20 19 19 20 19 18 18 18 19 20 20 20 21 20 19 20 19 18 19 18 18 18 17
11 12 12 12 13 13 14 14 14 15 15 16 15 15 16 16 16 16 17 17 16 19 20 19 20 20 21 20 20 19 19 18 18 18 19 19 21 20 19 19 19 19 18 18 18 18 16
11 11 12 12 12 13 14 14 14 14 14 15 15 15 15 15 16 16 17 16 19 20 20 19 19 19 20 19 20 19 19 16 16 15 18 19 20 19 18 18 19 18 16 15 18 16 17
11 11 11 11 12 12 13 14 15 14 14 14 14 15 15 15 16 16 17 19 20 20 18 19 18 19 19 18 19 19 18 17 15 15 16 17 18 18 19 17 16 16 16 15 15 17 16
11 11 11 12 12 13 13 14 15 15 14 14 14 14 14 15 16 16 16 20 16 17 17 17 19 19 18 18 17 19 16 15 13 13 13 15 18 18 18 16 16 16 15 15 14 15 14
11 11 12 12 12 13 14 14 16 16 15 15 15 16 16 16 16 16 18 16 15 15 15 17 18 17 18 17 17 18 18 13 13 13 13 14 12 16 16 16 17 16 16 13 13 13 13
11 11 12 12 12 13 14 15 15 15 15 15 15 17 16 17 17 16 19 16 14 14 14 15 16 17 16 15 16 16 16 12 12 12 12 13 12 15 15 16 14 14 13 14 13 13 11
12 12 12 12 12 13 14 15 16 15 15 15 16 19 17 17 18 19 16 16 14 14 14 14 14 14 14 14 14 15 15 13 10 10 11 11 10 10 13 15 14 13 12 13 10 10 9
12 12 12 13 13 13 14 15 16 16 16 16 17 17 17 17 19 16 14 13 12 13 12 14 13 12 13 13 13 14 13 9 9 10 9 9 10 8 13 12 13 13 13 12 11 9 8
12 13 13 13 14 14 14 15 16 16 16 16 17 18 16 16 17 17 15 14 11 10 11 12 12 12 12 13 13 12 12 11 9 9 8 8 8 9 8 10 10 10 10 11 10 7 7
12 12 13 13 13 14 14 15 16 16 16 15 15 12 12 16 15 16 16 15 13 12 11 11 11 11 11 11 12 13 12 12 11 8 9 9 8 9 10 10 9 9 9 9 8 8 7
12 12 12 13 13 14 14 15 15 16 16 15 14 14 13 13 14 16 12 14 14 12 12 12 12 11 10 10 11 10 10 10 10 10 9 9 6 8 7 8 9 9 9 9 9 9 9
12 12 12 12 12 13 13 14 14 15 16 12 11 12 13 11 14 15 13 13 12 11 10 10 10 10 10 10 8 8 7 8 8 8 8 7 7 6 5 8 8 6 9 10 10 10 10
12 12 12 12 12 12 13 13 13 13 14 13 12 11 13 13 14 13 12 11 11 11 11 10 9 9 8 6 6 7 7 7 8 8 8 7 7 6 5 6 4 10 10 10 9 9 9
11 11 11 11 11 11 12 12 12 12 12 12 12 10 10 14 14 11 11 11 10 8 8 9 9 8 6 6 8 8 9 9 10 9 9 8 6 5 4 5 7 8 10 8 8 7 8
11 11 11 11 11 11 11 11 11 11 11 11 10 11 9 11 13 12 11 10 11 11 9 8 6 5 5 7 8 4 8 9 8 9 10 9 8 6 6 3 3 9 9 10 8 5 8
10 10 10 11 10 10 10 10 10 10 9 10 9 9 8 9 10 9 11 10 10 10 10 9 7 6 5 8 7 7 8 9 6 8 8 7 6 5 5 5 6 9 9 8 5 5 7
9 10 10 10 10 10 10 10 10 9 9 8 6 7 8 7 8 8 8 8 8 8 10 7 7 6 7 6 7 8 6 8 6 8 7 6 5 5 5 4 4 10 8 6 7 7 7
7 8 9 10 10 10 9 10 9 9 9 8 5 5 6 6 7 7 7 6 7 7 8 6 8 8 8 7 7 6 5 5 5 4 8 5 7 5 5 5 8 8 8 8 7 6 5
Height
1524 1522 1520 1518 1517 1516 1515 1515 1515 1515 1515 1516 1517 1517 1518 1520 1521 1523 1524 1526 1527 1528 1530 1530 1531 1532 1533 1535 1537 1535 1535 1536 1535 1535 1536 1536 1535 1534 1533 1529 1529 1527 1525 1523 1521 1521 1521
1525 1523 1521 1520 1519 1518 1517 1517 1517 1517 1517 1518 1519 1520 1521 1522 1523 1524 1525 1527 1528 1529 1530 1531 1532 1532 1534 1535 1536 1536 1536 1536 1536 1537 1537 1536 1536 1536 1534 1531 1531 1525 1525 1523 1520 1516 1516
1527 1525 1523 1522 1521 1520 1519 1519 1519 1519 1519 1520 1521 1522 1523 1523 1524 1526 1526 1528 1528 1530 1531 1532 1532 1534 1534 1537 1536 1536 1536 1536 1536 1536 1537 1536 1535 1536 1534 1530 1527 1526 1525 1519 1511 1508 1510
1529 1527 1526 1524 1523 1522 1521 1521 1521 1521 1521 1521 1522 1523 1523 1525 1526 1526 1527 1528 1529 1531 1532 1533 1534 1534 1536 1535 1535 1536 1537 1538 1536 1536 1535 1534 1534 1534 1533 1530 1526 1523 1521 1524 1504 1505 1508
1531 1529 1528 1526 1525 1524 1523 1523 1522 1522 1522 1522 1523 1523 1524 1525 1526 1527 1528 1529 1530 1531 1532 1533 1534 1535 1537 1536 1537 1536 1536 1537 1535 1535 1534 1534 1533 1533 1531 1530 1528 1516 1526 1517 1509 1504 1507
1532 1531 1530 1529 1527 1526 1525 1524 1524 1524 1523 1523 1524 1524 1525 1526 1527 1528 1528 1530 1531 1532 1533 1534 1535 1538 1538 1538 1536 1535 1535 1535 1535 1534 1534 1533 1532 1531 1528 1528 1540 1530 1526 1519 1522 1509 1506
1535 1533 1532 1531 1529 1527 1526 1525 1525 1524 1524 1525 1525 1525 1526 1526 1527 1528 1529 1531 1535 1536 1536 1536 1537 1537 1537 1537 1536 1537 1536 1536 1535 1534 1532 1530 1534 1532 1528 1526 1526 1526 1527 1524 1514 1506 1506
1538 1536 1535 1533 1531 1529 1526 1525 1524 1524 1524 1525 1526 1526 1527 1527 1528 1529 1531 1532 1533 1536 1537 1536 1536 1537 1536 1536 1537 1537 1536 1537 1534 1533 1528 1531 1533 1527 1527 1525 1527 1526 1525 1520 1508 1505 1509
1541 1539 1537 1535 1532 1530 1527 1525 1524 1524 1524 1525 1526 1527 1527 1528 1530 1531 1532 1532 1532 1533 1534 1538 1537 1538 1538 1538 1537 1538 1538 1536 1533 1531 1526 1530 1524 1525 1527 1526 1526 1523 1522 1518 1521 1512 1507
1544 1542 1539 1537 1534 1531 1528 1525 1524 1524 1524 1525 1526 1527 1529 1530 1534 1533 1533 1533 1533 1533 1533 1539 1537 1538 1538 1538 1539 1538 1537 1538 1531 1530 1530 1528 1524 1526 1527 1527 1523 1529 1518 1521 1520 1522 1524
1546 1544 1541 1538 1535 1532 1529 1526 1524 1523 1524 1525 1527 1528 1530 1532 1533 1535 1534 1533 1533 1535 1538 1538 1538 1539 1538 1538 1539 1538 1537 1536 1535 1532 1534 1530 1524 1527 1531 1528 1526 1528 1521 1521 1518 1519 1519
1548 1546 1543 1540 1537 1533 1530 1527 1525 1524 1524 1525 1527 1529 1530 1532 1533 1533 1533 1533 1534 1537 1540 1538 1538 1538 1536 1537 1537 1538 1538 1538 1536 1533 1529 1528 1524 1525 1529 1526 1524 1523 1520 1515 1505 1511 1528
1550 1547 1544 1540 1537 1534 1531 1528 1527 1526 1525 1526 1528 1529 1531 1532 1533 1533 1533 1534 1535 1536 1534 1540 1540 1539 1538 1539 1537 1539 1539 1544 1547 1547 1534 1526 1521 1527 1530 1529 1522 1526 1529 1531 1517 1526 1523
1551 1547 1544 1541 1537 1535 1532 1530 1528 1528 1528 1528 1529 1530 1531 1532 1532 1533 1533 1534 1537 1533 1539 1541 1541 1539 1539 1543 1540 1540 1540 1543 1551 1550 1545 1538 1533 1529 1530 1534 1537 1532 1533 1540 1542 1526 1524
1553 1550 1547 1543 1540 1536 1533 1531 1528 1528 1529 1530 1531 1532 1533 1532 1532 1533 1535 1533 1545 1542 1546 1546 1540 1538 1540 1543 1545 1540 1547 1551 1558 1557 1558 1549 1534 1527 1531 1534 1537 1531 1537 1539 1543 1532 1533
1557 1554 1550 1547 1543 1540 1536 1532 1529 1528 1530 1532 1532 1535 1534 1533 1533 1534 1534 1541 1548 1551 1551 1546 1541 1544 1542 1545 1544 1543 1541 1559 1559 1561 1560 1554 1559 1534 1533 1535 1532 1537 1537 1547 1545 1547 1535
1560 1557 1553 1549 1545 1542 1538 1534 1531 1531 1532 1533 1534 1534 1535 1534 1534 1534 1534 1546 1553 1555 1553 1551 1548 1546 1549 1552 1551 1549 1549 1565 1564 1563 1561 1558 1559 1542 1538 1536 1539 1540 1542 1541 1541 1545 1547
1563 1559 1555 1551 1547 1544 1541 1537 1535 1533 1534 1535 1534 1533 1535 1534 1534 1533 1541 1548 1554 1556 1555 1555 1555 1554 1554 1555 1555 1553 1553 1559 1568 1567 1564 1563 1564 1560 1543 1536 1539 1542 1543 1542 1551 1547 1547
1564 1561 1558 1554 1551 1547 1543 1540 1537 1535 1535 1536 1537 1538 1537 1535 1534 1542 1551 1555 1557 1557 1559 1557 1558 1561 1560 1559 1561 1557 1558 1567 1568 1569 1569 1569 1562 1564 1540 1544 1541 1541 1542 1544 1545 1548 1546
1567 1564 1561 1558 1554 1550 1546 1542 1539 1537 1536 1538 1539 1538 1540 1539 1539 1540 1546 1551 1558 1561 1562 1562 1562 1562 1561 1560 1561 1561 1561 1565 1567 1569 1571 1572 1568 1563 1564 1554 1550 1548 1546 1545 1546 1550 1541
1569 1567 1564 1561 1558 1554 1550 1545 1541 1539 1537 1539 1539 1545 1545 1544 1545 1544 1546 1549 1555 1558 1562 1563 1564 1563 1565 1563 1560 1559 1563 1564 1564 1568 1569 1569 1565 1558 1554 1551 1550 1548 1544 1541 1542 1539 1541
1571 1569 1566 1563 1560 1557 1554 1550 1546 1541 1540 1540 1543 1546 1548 1549 1549 1547 1551 1551 1552 1559 1561 1561 1562 1564 1565 1566 1564 1566 1566 1566 1565 1564 1566 1565 1566 1561 1557 1550 1547 1541 1535 1532 1530 1527 1522
1571 1569 1568 1566 1563 1560 1556 1553 1549 1546 1543 1543 1546 1548 1547 1552 1551 1548 1552 1553 1556 1559 1563 1564 1565 1566 1564 1565 1566 1566 1567 1567 1566 1566 1567 1567 1564 1563 1557 1546 1546 1542 1522 1520 1520 1520 1517
1570 1569 1568 1566 1564 1562 1559 1557 1554 1550 1548 1548 1548 1549 1549 1550 1551 1552 1554 1555 1557 1559 1560 1564 1566 1568 1568 1566 1564 1561 1561 1561 1562 1562 1565 1564 1563 1563 1559 1552 1554 1521 1518 1519 1517 1515 1513
1569 1568 1567 1566 1565 1563 1561 1559 1557 1555 1552 1551 1550 1550 1551 1549 1552 1556 1556 1557 1559 1561 1564 1564 1566 1567 1566 1566 1561 1557 1554 1556 1551 1553 1556 1560 1565 1567 1566 1555 1535 1520 1517 1520 1515 1507 1509
1568 1567 1566 1565 1565 1564 1562 1560 1559 1557 1555 1554 1552 1551 1551 1553 1552 1554 1556 1557 1556 1558 1562 1563 1565 1565 1566 1564 1561 1570 1556 1551 1554 1552 1548 1552 1555 1560 1556 1566 1557 1513 1514 1514 1513 1511 1505
1565 1564 1564 1563 1563 1563 1562 1561 1560 1558 1557 1555 1554 1553 1553 1554 1553 1555 1555 1556 1556 1556 1556 1559 1562 1564 1566 1560 1560 1561 1555 1553 1559 1551 1548 1550 1551 1553 1550 1550 1530 1513 1514 1512 1521 1511 1501
1562 1561 1561 1561 1562 1562 1561 1561 1560 1558 1557 1556 1555 1554 1555 1555 1553 1552 1553 1554 1555 1555 1554 1559 1562 1562 1562 1562 1559 1556 1558 1552 1554 1546 1547 1551 1553 1548 1542 1545 1538 1510 1510 1520 1509 1498 1496
1559 1558 1558 1558 1559 1559 1560 1560 1559 1559 1558 1557 1557 1555 1554 1553 1551 1548 1548 1550 1553 1554 1554 1555 1556 1556 1557 1557 1555 1556 1558 1556 1554 1554 1540 1546 1536 1539 1537 1525 1510 1511 1510 1506 1503 1496 1493
Wind_Speed
10 10 11 9 9 9 10 11 11 11 11 11 11 12 13 13 12 12 11 11 10 9 8 7 6 7 9 1 3 1 0 2 6 7 3 2 4 4 6 7 8 10 15 19 13 16 17
11 12 11 11 10 9 9 10 10 10 10 10 10 9 9 10 10 10 10 9 8 8 6 5 4 6 3 2 1 1 1 6 3 4 3 4 4 6 8 10 7 11 15 20 23 24 22
11 11 11 11 10 9 8 8 8 8 7 8 8 8 9 8 8 8 8 7 7 6 5 4 4 5 2 3 2 1 2 3 4 2 1 3 4 5 10 8 7 10 12 13 21 22 7
9 9 10 10 10 9 8 7 6 6 5 5 6 6 7 6 6 6 6 6 6 5 5 4 5 6 2 1 1 2 3 3 6 4 3 4 3 5 4 10 7 6 8 4 5 5 6
9 9 8 8 8 8 7 6 5 4 4 3 4 4 5 5 5 5 5 5 5 4 4 4 7 4 5 6 4 2 0 2 4 4 5 3 3 4 4 5 6 7 5 9 8 7 2
11 11 11 10 9 7 5 4 4 4 3 3 4 4 4 4 4 5 5 6 6 6 6 6 7 0 3 2 2 3 2 2 2 5 6 3 4 4 6 5 5 11 12 12 12 8 11
15 15 14 13 12 11 8 4 2 2 3 3 4 4 4 5 5 7 11 7 3 5 3 1 3 5 5 1 5 1 3 5 4 6 4 4 3 6 9 7 8 8 11 13 13 13 12
18 17 17 16 16 14 10 6 2 1 2 3 4 4 4 5 7 8 6 2 0 6 4 5 5 4 1 1 1 1 4 4 2 6 6 5 7 5 6 5 5 8 13 14 12 10 13
17 17 16 16 16 17 14 8 3 0 3 4 4 4 6 8 8 7 3 3 5 8 3 3 3 4 1 2 2 5 5 5 7 6 5 5 9 3 4 6 11 11 12 10 13 15 14
17 17 17 17 17 17 17 11 5 2 4 5 5 5 10 11 7 5 2 2 3 6 4 5 3 1 1 1 2 3 5 4 3 4 7 8 5 2 7 10 10 9 9 11 12 11 4
17 16 16 16 17 17 18 13 8 4 3 6 6 6 10 4 7 2 4 1 2 3 3 2 4 1 0 2 2 1 6 3 6 10 4 5 8 6 7 8 10 6 9 13 15 13 11
16 16 16 16 16 16 15 14 11 9 6 8 8 7 8 5 1 2 1 1 2 3 1 4 3 3 5 4 3 3 2 4 10 8 9 12 15 4 2 9 8 9 11 17 17 8 5
18 19 20 20 20 18 16 14 9 8 9 8 8 7 4 8 6 2 0 3 3 3 2 4 2 3 4 5 1 5 3 10 6 8 5 11 1 6 8 9 2 9 11 4 2 2 5
22 23 24 24 23 21 18 13 8 5 8 9 8 6 3 1 3 2 2 4 4 3 6 1 1 4 3 7 4 5 7 5 12 9 5 6 2 4 5 3 6 12 5 4 5 4 8
22 23 23 23 22 21 19 15 7 3 7 9 8 8 3 2 2 3 3 3 5 6 4 5 5 5 5 3 4 5 6 4 6 10 7 6 2 6 8 4 4 8 4 4 5 9 10
20 20 20 20 20 20 20 19 10 6 7 9 7 2 9 2 2 3 4 4 4 5 5 4 4 3 4 5 5 5 1 4 3 8 10 4 7 8 6 3 8 5 3 2 3 5 5
17 18 20 21 23 21 21 22 12 7 7 6 5 2 7 5 2 4 3 5 5 6 6 7 4 2 3 4 4 4 6 5 4 7 11 5 3 2 12 3 8 5 7 7 5 6 4
18 21 23 24 24 23 22 21 14 6 5 4 2 1 3 1 3 6 4 3 3 3 4 5 4 6 5 4 3 2 3 5 4 7 5 6 4 5 8 9 7 4 7 8 1 5 4
21 23 24 24 23 23 23 22 18 8 2 6 3 3 5 4 1 5 7 5 6 2 6 3 3 6 4 3 3 1 5 8 6 7 6 7 2 5 4 4 4 2 3 3 8 4 15
20 22 24 24 24 23 23 22 20 13 2 3 2 1 5 9 8 11 8 6 4 5 4 5 3 1 3 2 3 2 3 4 6 3 1 2 4 6 5 10 14 15 13 14 14 10 16
17 19 21 23 24 24 22 23 21 15 5 4 5 3 3 2 5 8 6 3 7 3 2 0 3 3 3 2 4 5 1 5 5 7 2 3 6 9 11 15 16 18 19 18 17 18 18
15 16 18 20 22 23 23 22 21 18 9 7 4 1 5 5 1 6 2 3 4 4 1 5 2 4 1 3 3 6 9 7 6 5 1 2 4 9 12 16 16 18 18 19 19 20 21
13 14 15 16 18 20 21 21 21 20 12 8 8 6 3 1 1 4 2 5 5 3 2 2 2 2 5 4 6 9 11 12 12 8 7 5 3 5 4 7 17 14 4 6 13 16 13
14 14 14 14 15 17 18 19 18 18 17 12 8 6 4 3 3 3 5 5 6 2 2 2 1 2 2 7 13 13 17 17 17 16 14 7 6 3 7 12 4 4 14 14 17 18 16
15 15 15 15 14 14 16 16 15 14 13 13 10 5 3 1 4 4 6 4 4 3 2 3 2 3 5 6 3 4 3 4 8 13 13 15 6 4 3 5 17 19 5 14 18 16 11
15 15 15 16 15 13 13 14 13 12 11 9 10 6 5 5 0 2 7 6 3 5 7 6 3 1 1 3 1 1 2 4 3 5 9 8 10 7 5 5 6 3 18 18 10 15 9
18 17 17 16 15 14 12 12 12 10 9 9 10 9 5 3 2 3 5 5 4 2 2 5 7 4 3 2 2 2 2 2 3 3 3 4 5 10 10 10 10 10 11 23 8 13 34
19 19 19 18 16 17 16 13 11 9 7 7 9 10 6 2 6 8 6 4 3 5 2 6 3 4 5 2 1 2 2 1 3 4 3 3 3 3 5 8 12 2 21 13 23 36 36
21 19 19 16 12 13 16 19 16 14 11 7 4 10 11 4 7 11 13 16 11 7 5 9 2 3 5 3 2 1 2 3 3 3 5 4 7 3 5 6 21 33 30 33 36 24 28
Wind_Direction
36 39 42 43 58 69 74 79 84 88 95 102 111 121 128 135 137 139 141 139 138 134 132 123 120 136 141 181 91 157 58 53 41 43 15 348 289 316 259 316 304 259 268 281 301 300 285
47 47 51 55 53 62 73 81 87 91 96 101 110 118 128 137 141 146 147 144 143 136 132 120 118 141 85 202 158 276 24 33 34 32 355 5 347 322 293 291 293 314 312 294 287 277 275
52 54 57 57 61 61 64 77 88 95 105 112 119 125 130 134 144 148 147 147 142 134 124 113 101 118 70 117 186 221 36 349 9 14 39 346 334 321 330 284 320 294 288 283 270 260 218
44 53 56 59 58 61 66 69 77 92 105 117 125 131 133 140 147 150 149 148 139 133 122 110 106 92 70 329 203 12 325 306 341 346 339 312 317 294 255 308 303 253 252 291 254 124 139
44 47 49 57 62 64 65 68 76 87 99 115 127 134 138 148 153 152 150 143 132 118 108 109 75 6 100 56 64 325 33 319 325 327 316 304 327 281 274 249 287 232 266 293 320 56 94
44 41 43 43 42 40 47 60 72 85 103 116 123 126 133 139 135 129 122 107 97 96 77 72 60 54 101 87 356 54 347 27 319 308 283 255 247 242 225 244 288 327 321 313 306 318 310
56 54 51 45 38 30 20 15 40 101 111 113 113 125 134 137 130 123 123 93 75 62 47 57 57 95 94 350 34 40 332 308 291 263 272 147 299 267 9 14 336 311 293 290 294 301 305
60 56 51 46 40 32 21 10 360 42 113 110 117 127 133 134 126 122 93 355 337 144 101 65 85 83 95 204 232 123 350 294 287 290 319 247 236 56 346 315 298 290 285 286 286 340 343
58 54 48 40 35 30 25 25 17 189 168 149 133 127 124 126 114 110 93 172 152 154 233 98 99 61 45 71 50 36 346 323 276 287 279 290 311 64 335 316 300 297 297 314 319 323 292
51 44 38 32 28 27 25 32 37 75 173 165 135 122 127 111 92 127 330 163 173 191 217 139 171 68 10 130 143 31 -0 346 273 315 343 275 82 356 315 306 322 312 355 336 313 315 295
43 39 34 29 23 21 25 32 45 73 147 167 151 129 147 93 126 290 246 209 146 125 244 345 96 153 88 331 18 115 16 317 295 319 326 280 344 5 309 320 344 279 330 297 279 270 285
39 35 31 28 27 23 24 31 41 61 109 148 155 141 149 122 70 177 217 96 76 229 113 102 76 351 237 57 70 356 10 12 285 291 253 258 272 279 2 316 267 294 297 297 272 248 257
34 31 28 26 24 25 23 23 40 62 88 119 140 150 158 154 200 245 141 53 229 287 228 94 42 355 317 18 77 14 8 51 31 344 19 309 43 90 27 332 316 356 340 305 304 151 220
28 25 23 21 20 18 21 22 25 82 98 104 109 115 111 200 218 198 100 241 263 55 48 75 337 273 23 357 112 329 318 147 47 354 300 338 217 166 67 41 323 297 262 287 301 323 321
24 22 19 17 18 17 18 14 28 133 122 106 84 75 24 355 178 176 259 246 30 23 354 343 250 256 129 134 335 318 82 51 45 20 359 341 268 358 10 32 344 9 347 346 295 276 270
21 18 17 18 22 21 20 17 34 127 140 122 101 143 10 19 126 132 255 79 96 31 340 294 339 353 343 38 321 1 68 44 63 32 346 40 296 295 121 317 255 228 72 11 304 279 273
22 19 20 21 23 25 23 22 37 105 133 106 85 217 354 131 155 246 3 63 105 42 12 357 10 318 58 9 332 321 69 70 40 5 316 335 235 295 333 276 351 322 301 291 260 243 267
29 27 24 20 20 22 23 25 31 61 119 80 26 265 62 133 241 30 67 68 75 37 27 43 45 30 15 3 317 330 15 70 59 340 334 46 314 289 273 312 27 320 295 277 226 280 330
31 29 25 21 20 18 19 20 22 31 82 80 35 42 15 18 307 102 115 91 62 54 27 38 70 21 18 355 329 51 21 123 74 22 28 10 261 304 148 118 182 37 13 297 248 260 261
27 24 24 21 19 19 17 16 18 22 68 122 351 226 61 50 23 121 135 128 110 46 66 47 62 6 341 275 131 325 304 122 141 241 92 197 261 253 267 293 306 298 300 293 287 280 287
15 18 18 17 15 17 17 17 18 23 60 90 41 62 42 50 57 83 81 133 135 127 93 69 131 57 40 288 309 253 73 301 242 127 197 233 269 276 284 300 302 293 289 282 274 276 271
356 5 10 11 10 13 15 18 20 22 27 71 53 46 72 82 358 120 168 95 133 133 274 143 258 131 286 260 299 291 320 298 273 184 240 216 275 311 289 280 276 289 286 284 276 274 273
340 347 355 2 4 6 11 15 23 30 34 68 68 69 31 128 240 265 51 129 130 135 99 24 4 306 277 352 339 304 296 283 273 282 289 287 280 321 261 319 311 287 282 343 312 303 313
327 331 337 346 355 359 5 11 18 32 38 54 55 67 319 101 298 49 138 126 137 111 36 145 201 271 36 320 303 278 251 248 249 249 240 254 278 287 289 308 253 248 325 329 324 316 311
316 319 323 328 339 348 353 2 8 25 35 46 42 84 25 37 46 138 153 140 127 119 190 247 226 239 327 312 288 326 172 231 235 223 219 218 241 280 273 281 284 276 278 334 308 307 308
305 309 312 315 321 332 341 348 358 9 20 31 38 43 71 343 7 14 172 190 222 198 155 189 181 321 329 274 340 0 290 16 321 324 200 209 207 224 266 281 271 279 324 324 339 296 342
304 301 300 302 306 312 322 333 341 353 4 13 28 26 73 330 295 171 202 200 198 276 319 131 168 190 211 243 237 235 265 97 245 255 210 227 236 236 249 255 263 271 -0 336 304 296 316
298 297 296 298 307 309 311 315 319 327 342 2 355 6 28 265 268 240 237 204 178 212 250 122 139 203 187 238 280 238 205 253 299 260 266 222 245 240 254 262 268 294 328 320 300 308 306
298 300 297 299 307 316 316 316 316 317 319 329 17 334 341 283 244 260 239 217 221 224 222 171 333 150 220 220 214 34 275 215 231 260 206 246 214 214 219 242 287 305 301 304 303 314 321